Flag for United Kingdom Weather past 2 weeks in Bury, England, United Kingdom

Now
45 °F

Haze.


Feels Like: 39 °F
Forecast: 44 / 58 °F
Wind: 12 mph from Northeast

Location: Manchester Airport


UV Index: 0 (Low)

Visibility: 3 mi


Pressure: 30.01 "Hg

Humidity: 93%

Dew point: 43 °F

Location of BuryLocation

Historic Weather in Bury

°F

Bury temperature yesterday

Maximum temperature yesterday: 59 °F (at 1:50 PM)
Minimum temperature yesterday: 39 °F (at 5:50 AM)
Average temperature yesterday: 52 °F

Past Weeks' High & Low Weather Summary

 TemperatureHumidityPressure
High66 °F (Apr 21, 2:20 PM)100% (Apr 18, 3:20 AM)30.45 "Hg (Apr 18, 3:20 AM)
Low34 °F (Apr 18, 4:20 AM)36% (Apr 18, 1:50 PM)29.71 "Hg (Apr 20, 6:50 PM)
Average49 °F74%30.08 "Hg
* Reported Apr 10 4:20 AM — Apr 25 4:20 AM, Bury, Weather by CustomWeather, © 2014

Note: Actual official high and low records may vary slightly from our data, if they occured in-between our weather recording intervals... More about our weather records

Advertising

Historic Weather Conditions — Data for Previous 24 hours

 ConditionsComfort  
Time TempWeatherWind HumidityBarometerVisibility
4:20 AM
Apr 25
46 °FHaze.9 mph87%30.01 "Hg2 mi
3:50 AM45 °FHaze.9 mph93%30.01 "Hg2 mi
3:20 AM45 °FHaze.8 mph93%30.04 "Hg2 mi
2:50 AM46 °FHaze.7 mph93%30.04 "Hg2 mi
2:20 AM48 °FHaze.9 mph94%30.04 "Hg3 mi
1:50 AM48 °FClear.5 mph94%30.04 "Hg4 mi
1:20 AM50 °FClear.6 mph88%30.04 "Hg5 mi
12:50 AM52 °FClear.6 mph88%30.04 "Hg4 mi
12:20 AM52 °FPassing clouds.3 mph82%30.04 "Hg6 mi
11:50 PM
Apr 24
50 °FPassing clouds.7 mph88%30.07 "HgN/A
11:20 PM52 °FClear.6 mph82%30.07 "Hg10 mi
10:50 PM50 °FClear.9 mph88%30.07 "Hg10 mi
10:20 PM50 °FClear.7 mph88%30.04 "Hg10 mi
9:50 PM52 °FClear.6 mph82%30.07 "Hg10 mi
9:20 PM52 °FSunny.6 mph82%30.07 "Hg10 mi
8:50 PM52 °FScattered showers. Clear.7 mph82%30.07 "HgN/A
8:20 PM54 °FScattered showers. Clear.5 mph77%30.07 "HgN/A
7:50 PM55 °FScattered showers. Scattered clouds.3 mph72%30.07 "HgN/A
7:20 PM57 °FPassing clouds.7 mph67%30.04 "HgN/A
6:50 PM57 °FPassing clouds.5 mph67%30.04 "HgN/A
6:20 PM57 °FPassing clouds.6 mph63%30.04 "HgN/A
5:50 PM59 °FPassing clouds.5 mph59%30.07 "HgN/A
5:20 PM59 °FScattered clouds.3 mph59%30.07 "HgN/A
4:50 PM59 °FScattered showers. Scattered clouds.No wind59%30.07 "HgN/A
4:20 PM59 °FScattered showers. Scattered clouds.2 mph63%30.07 "HgN/A
3:50 PM59 °FScattered showers. Scattered clouds.No wind63%30.07 "HgN/A
3:20 PM55 °FSprinkles. Passing clouds.3 mph77%30.07 "HgN/A
2:50 PM57 °FSprinkles. Scattered clouds.5 mph67%30.09 "HgN/A
2:20 PM59 °FScattered clouds.3 mph59%30.09 "HgN/A
1:50 PM59 °FScattered clouds.2 mph63%30.09 "HgN/A
1:20 PM57 °FBroken clouds.7 mph67%30.09 "HgN/A
12:50 PM57 °FScattered clouds.7 mph67%30.09 "HgN/A
12:20 PM57 °FBroken clouds.5 mph72%30.09 "HgN/A
11:50 AM57 °FPassing clouds.3 mph67%30.09 "HgN/A
11:20 AM55 °FScattered clouds.3 mph72%30.12 "HgN/A
10:50 AM55 °FScattered clouds.2 mph72%30.12 "HgN/A
10:20 AM55 °FPartly sunny.3 mph77%30.12 "HgN/A
9:50 AM54 °FPassing clouds.2 mph77%30.12 "HgN/A
9:20 AM52 °FPassing clouds.3 mph82%30.12 "HgN/A
8:50 AM52 °FSunny.3 mph82%30.12 "Hg10 mi
8:20 AM50 °FClear.3 mph88%30.12 "Hg6 mi
7:50 AM46 °FFog.5 mph100%30.09 "Hg6 mi
7:20 AM45 °FFog.5 mph100%30.09 "Hg6 mi
6:50 AM43 °FFog.3 mph93%30.09 "Hg6 mi
6:20 AM41 °FFog.5 mph93%30.09 "Hg6 mi
5:50 AM39 °FFog.5 mph100%30.09 "Hg6 mi
5:20 AM41 °FFog.2 mph100%30.09 "Hg6 mi
Weather by CustomWeather, © 2014

See weather overview